Flag Weather past 2 weeks in Zwettl, Lower Austria, Austria

Now
34 °F

Chilly.


Feels Like: 30 °F
Forecast: 27 / 34 °F
Wind: 5 mph from East

Location: Retz

Current Time: Nov 27, 2014 at 6:37:34 PM

Latest Report: Nov 27, 2014 at 6:00 PM


Visibility: N/A

Pressure: 30.03 "Hg

Humidity: 85%

Dew point: 30 °F

Location of ZwettlLocation

Historic Weather in Zwettl — Graph

°F

Zwettl temperature yesterday

Maximum temperature yesterday: 38 °F (at 2:00 PM)
Minimum temperature yesterday: 34 °F (at 8:00 AM)
Average temperature yesterday: 36 °F

Past Weeks' High & Low Weather Summary

 TemperatureHumidityPressure
High54 °F (Nov 14, 4:00 PM)100% (Nov 17, 4:00 AM)30.40 "Hg (Nov 17, 4:00 AM)
Low34 °F (Nov 26, 8:00 AM)74% (Nov 21, 1:00 PM)29.63 "Hg (Nov 16, 6:00 AM)
Average43 °F91%30.07 "Hg
* Reported Nov 12 5:00 PM — Nov 27 5:00 PM, Zwettl, Weather by CustomWeather, © 2014

Note: Actual official high and low records may vary slightly from our data, if they occured in-between our weather recording intervals... More about our weather records

Advertising

Zwettl weather history for previous 24 hours

 ConditionsComfort  
Time TempWeatherWind HumidityBarometerVisibility
5:00 PM
Nov 27
34 °FChilly.6 mph84%30.03 "HgN/A
4:00 PM34 °FChilly.6 mph84%30.03 "HgN/A
3:00 PM35 °FChilly.5 mph81%30.03 "HgN/A
2:00 PM35 °FChilly.6 mph78%30.03 "HgN/A
1:00 PM35 °FOvercast.6 mph77%30.04 "Hg5 mi
12:00 PM35 °FChilly.7 mph75%30.05 "HgN/A
11:00 AM35 °FChilly.7 mph79%30.07 "HgN/A
10:00 AM35 °FChilly.5 mph79%30.08 "HgN/A
9:00 AM34 °FChilly.6 mph83%30.08 "HgN/A
8:00 AM34 °FChilly.7 mph87%30.08 "HgN/A
7:00 AM35 °FFog.7 mph89%30.06 "Hg2 mi
6:00 AM35 °FChilly.6 mph91%30.07 "HgN/A
5:00 AM35 °FChilly.6 mph90%30.08 "HgN/A
4:00 AM35 °FChilly.5 mph88%30.08 "HgN/A
3:00 AM35 °FChilly.5 mph90%30.10 "HgN/A
2:00 AM35 °FChilly.6 mph90%30.11 "HgN/A
1:00 AM35 °FChilly.5 mph93%30.12 "HgN/A
12:00 AM35 °FChilly.5 mph92%30.14 "HgN/A
11:00 PM
Nov 26
35 °FChilly.5 mph93%30.15 "HgN/A
10:00 PM36 °FChilly.6 mph92%30.15 "HgN/A
9:00 PM36 °FChilly.3 mph92%30.16 "HgN/A
8:00 PM36 °FChilly.5 mph91%30.17 "HgN/A
7:00 PM36 °FOvercast.5 mph90%30.17 "Hg3 mi
6:00 PM36 °FChilly.5 mph90%30.18 "HgN/A
Weather by CustomWeather, © 2014

See weather overviewHow to use our weather pages